Time,TemperatureF,DewpointF,PressureIn,WindDirection,WindDirectionDegrees,WindSpeedMPH,WindSpeedGustMPH,Humidity,HourlyPrecipIn,Conditions,Clouds,dailyrainin,SoftwareType,DateUTC
2013-02-13 12:07:00,40.7,26.4,29.79,WSW,248,3.0,9.0,54,0.00,,BKN050,0.00,VWS V14.01,2013-02-13 17:07:00,
2013-02-13 12:12:00,44.7,28.6,29.78,WSW,248,0.0,4.0,53,0.00,,BKN050,0.00,VWS V14.01,2013-02-13 17:12:00,
2013-02-13 12:17:00,44.4,27.4,29.77,SW,218,3.0,4.0,51,0.00,,BKN050,0.00,VWS V14.01,2013-02-13 17:17:00,
2013-02-13 12:22:00,44.8,28.3,29.77,SW,214,0.0,6.0,52,0.00,,BKN050,0.00,VWS V14.01,2013-02-13 17:22:00,
2013-02-13 12:27:00,45.1,28.1,29.76,SSW,208,0.0,6.0,51,0.00,,BKN050,0.00,VWS V14.01,2013-02-13 17:27:00,
2013-02-13 12:32:00,45.5,28.9,29.76,SSW,207,0.0,0.0,52,0.00,,BKN050,0.00,VWS V14.01,2013-02-13 17:32:00,
2013-02-13 15:30:00,48.6,31.3,29.69,SW,225,2.0,10.0,48,0.00,,BKN050,0.00,VWS V14.01,2013-02-13 20:30:00,
2013-02-13 15:35:00,45.8,29.1,29.70,SSW,192,8.0,8.0,52,0.00,,BKN050,0.00,VWS V14.01,2013-02-13 20:35:00,
2013-02-13 15:40:00,44.9,28.8,29.69,SSW,209,9.0,9.0,53,0.00,,BKN050,0.00,VWS V14.01,2013-02-13 20:40:00,
2013-02-13 15:45:00,44.1,28.5,29.69,WSW,243,0.0,9.0,54,0.00,,BKN050,0.00,VWS V14.01,2013-02-13 20:45:00,
2013-02-13 15:50:00,43.5,28.4,29.68,South,185,1.0,9.0,55,0.00,,BKN050,0.00,VWS V14.01,2013-02-13 20:50:00,
2013-02-13 15:55:00,43.3,28.7,29.67,SW,229,0.0,9.0,56,0.00,,BKN050,0.00,VWS V14.01,2013-02-13 20:55:00,
2013-02-13 16:00:00,43.0,28.4,29.67,South,182,0.0,5.0,56,0.00,,BKN250,0.00,VWS V14.01,2013-02-13 21:00:00,
2013-02-13 16:05:00,42.8,28.6,29.67,SW,226,1.0,5.0,57,0.00,,BKN250,0.00,VWS V14.01,2013-02-13 21:05:00,
2013-02-13 16:10:00,42.7,29.0,29.68,SSW,205,0.0,5.0,58,0.00,,BKN250,0.00,VWS V14.01,2013-02-13 21:10:00,
2013-02-13 16:15:00,42.3,28.2,29.67,WSW,249,3.0,5.0,57,0.00,,BKN250,0.00,VWS V14.01,2013-02-13 21:15:00,
2013-02-13 16:20:00,42.0,28.3,29.67,WSW,249,0.0,5.0,58,0.00,,BKN250,0.00,VWS V14.01,2013-02-13 21:20:00,
2013-02-13 16:25:00,41.9,28.2,29.68,WSW,243,1.0,5.0,58,0.00,,BKN250,0.00,VWS V14.01,2013-02-13 21:25:00,
2013-02-13 16:30:00,41.7,28.4,29.67,SSW,206,2.0,5.0,59,0.00,,BKN250,0.00,VWS V14.01,2013-02-13 21:30:00,
2013-02-13 16:35:00,41.6,28.8,29.67,SSW,206,0.0,5.0,60,0.00,,BKN250,0.00,VWS V14.01,2013-02-13 21:35:00,
2013-02-13 16:40:00,41.3,28.5,29.67,SW,219,0.0,5.0,60,0.00,,BKN250,0.00,VWS V14.01,2013-02-13 21:40:00,
2013-02-13 16:45:00,41.0,28.2,29.67,SW,219,0.0,5.0,60,0.00,,BKN250,0.00,VWS V14.01,2013-02-13 21:45:00,
2013-02-13 16:50:00,41.0,28.6,29.66,SW,218,0.0,5.0,61,0.00,,BKN250,0.00,VWS V14.01,2013-02-13 21:50:00,
2013-02-13 16:55:00,40.9,28.5,29.65,SW,218,0.0,5.0,61,0.00,,BKN250,0.00,VWS V14.01,2013-02-13 21:55:00,
2013-02-13 17:00:00,40.9,28.9,29.64,SW,219,0.0,0.0,62,0.00,,BKN250,0.00,VWS V14.01,2013-02-13 22:00:00,
2013-02-13 17:05:00,40.9,28.9,29.64,SW,219,0.0,0.0,62,0.00,,BKN250,0.00,VWS V14.01,2013-02-13 22:05:00,
2013-02-13 17:10:00,40.7,28.7,29.64,SE,141,0.0,3.0,62,0.00,,BKN250,0.00,VWS V14.01,2013-02-13 22:10:00,
2013-02-13 17:15:00,40.5,28.5,29.63,SE,141,0.0,3.0,62,0.00,,BKN250,0.00,VWS V14.01,2013-02-13 22:15:00,
2013-02-13 17:20:00,40.4,28.7,29.63,SE,141,0.0,3.0,63,0.00,,BKN250,0.00,VWS V14.01,2013-02-13 22:20:00,
2013-02-13 17:25:00,40.3,28.7,29.64,SE,141,0.0,3.0,63,0.00,,BKN250,0.00,VWS V14.01,2013-02-13 22:25:00,
2013-02-13 17:30:00,40.2,28.6,29.64,SE,141,0.0,3.0,63,0.00,,BKN250,0.00,VWS V14.01,2013-02-13 22:30:00,
2013-02-13 17:35:00,40.2,28.6,29.63,SE,140,0.0,3.0,63,0.00,,BKN250,0.00,VWS V14.01,2013-02-13 22:35:00,
2013-02-13 17:40:00,40.1,28.9,29.63,SE,141,0.0,3.0,64,0.00,,BKN250,0.00,VWS V14.01,2013-02-13 22:40:00,
2013-02-13 17:45:00,40.1,28.9,29.64,SE,141,0.0,3.0,64,0.00,,BKN250,0.00,VWS V14.01,2013-02-13 22:45:00,
2013-02-13 17:50:00,40.0,28.8,29.64,SE,141,0.0,3.0,64,0.00,,BKN250,0.00,VWS V14.01,2013-02-13 22:50:00,
2013-02-13 17:55:00,39.8,28.6,29.63,SE,141,0.0,3.0,64,0.00,,BKN250,0.00,VWS V14.01,2013-02-13 22:55:00,
2013-02-13 18:00:00,39.7,28.5,29.62,SE,141,0.0,0.0,64,0.00,,BKN250,0.00,VWS V14.01,2013-02-13 23:00:00,
2013-02-13 18:05:00,39.6,28.8,29.62,SE,141,0.0,1.0,65,0.00,,BKN250,0.00,VWS V14.01,2013-02-13 23:05:00,
2013-02-13 18:10:00,39.6,28.8,29.62,SE,141,0.0,1.0,65,0.00,,BKN250,0.00,VWS V14.01,2013-02-13 23:10:00,
2013-02-13 18:15:00,39.6,28.8,29.62,SE,141,0.0,1.0,65,0.00,,BKN250,0.00,VWS V14.01,2013-02-13 23:15:00,
2013-02-13 18:20:00,39.5,28.7,29.61,SE,133,0.0,1.0,65,0.00,,BKN250,0.00,VWS V14.01,2013-02-13 23:20:00,
2013-02-13 18:25:00,39.6,28.8,29.61,East,82,0.0,3.0,65,0.00,,BKN250,0.00,VWS V14.01,2013-02-13 23:25:00,
2013-02-13 18:30:00,39.5,29.1,29.61,ENE,78,0.0,0.0,66,0.00,,BKN250,0.00,VWS V14.01,2013-02-13 23:30:00,
2013-02-13 18:35:00,39.4,28.6,29.61,East,79,0.0,3.0,65,0.00,,BKN250,0.00,VWS V14.01,2013-02-13 23:35:00,
2013-02-13 18:40:00,39.4,28.6,29.61,East,81,0.0,4.0,65,0.00,,BKN250,0.00,VWS V14.01,2013-02-13 23:40:00,
2013-02-13 18:45:00,39.3,28.5,29.62,East,81,0.0,4.0,65,0.00,,BKN250,0.00,VWS V14.01,2013-02-13 23:45:00,
2013-02-13 18:50:00,39.3,28.5,29.63,SSE,151,3.0,5.0,66,0.00,,BKN250,0.00,VWS V14.01,2013-02-13 23:50:00,
2013-02-13 18:55:00,39.4,28.6,29.64,SE,146,2.0,5.0,65,0.00,,BKN250,0.00,VWS V14.01,2013-02-13 23:55:00,
2013-02-13 19:00:00,39.4,29.0,29.64,SE,146,0.0,0.0,66,0.00,,OVC110,0.00,VWS V14.01,2013-02-14 00:00:00,
2013-02-13 19:05:00,39.6,29.2,29.64,SE,146,0.0,0.0,66,0.00,,OVC110,0.00,VWS V14.01,2013-02-14 00:05:00,
2013-02-13 19:10:00,39.6,29.2,29.64,SE,146,0.0,0.0,66,0.00,,OVC110,0.00,VWS V14.01,2013-02-14 00:10:00,
2013-02-13 19:15:00,39.6,29.2,29.64,SE,146,0.0,0.0,66,0.00,,OVC110,0.00,VWS V14.01,2013-02-14 00:15:00,
2013-02-13 19:20:00,39.7,28.9,29.64,SE,146,0.0,1.0,65,0.00,,OVC110,0.00,VWS V14.01,2013-02-14 00:20:00,
2013-02-13 19:25:00,39.7,28.9,29.64,South,189,0.0,3.0,65,0.00,,OVC110,0.00,VWS V14.01,2013-02-14 00:25:00,
2013-02-13 19:30:00,39.6,29.2,29.64,South,189,0.0,0.0,66,0.00,,OVC110,0.00,VWS V14.01,2013-02-14 00:30:00,
2013-02-13 19:35:00,39.6,29.2,29.64,South,185,0.0,1.0,66,0.00,,OVC110,0.00,VWS V14.01,2013-02-14 00:35:00,
2013-02-13 19:40:00,39.5,29.1,29.63,South,185,0.0,1.0,66,0.00,,OVC110,0.00,VWS V14.01,2013-02-14 00:40:00,
2013-02-13 19:45:00,39.5,29.1,29.62,South,185,0.0,1.0,66,0.00,,OVC110,0.00,VWS V14.01,2013-02-14 00:45:00,
2013-02-13 19:50:00,39.4,29.0,29.62,South,185,0.0,1.0,66,0.00,,OVC110,0.00,VWS V14.01,2013-02-14 00:50:00,
2013-02-13 19:55:00,39.5,29.5,29.62,South,185,0.0,1.0,67,0.00,,OVC110,0.00,VWS V14.01,2013-02-14 00:55:00,
2013-02-13 20:00:00,39.4,29.4,29.62,SSE,151,0.0,0.0,67,0.00,,,0.00,VWS V14.01,2013-02-14 01:00:00,
2013-02-13 20:05:00,39.3,29.3,29.62,SSE,151,0.0,1.0,67,0.00,,,0.00,VWS V14.01,2013-02-14 01:05:00,
2013-02-13 20:10:00,39.2,29.1,29.62,SSE,151,0.0,3.0,67,0.00,,,0.00,VWS V14.01,2013-02-14 01:10:00,
2013-02-13 20:15:00,38.9,28.9,29.62,SSE,151,0.0,3.0,67,0.00,,,0.00,VWS V14.01,2013-02-14 01:15:00,
2013-02-13 20:20:00,38.8,29.5,29.62,SSE,151,0.0,3.0,69,0.00,,,0.00,VWS V14.01,2013-02-14 01:20:00,
2013-02-13 20:25:00,39.0,29.7,29.62,SSE,151,0.0,3.0,69,0.00,,,0.00,VWS V14.01,2013-02-14 01:25:00,
2013-02-13 20:30:00,39.0,29.7,29.62,SSE,151,0.0,0.0,69,0.00,,,0.00,VWS V14.01,2013-02-14 01:30:00,
2013-02-13 20:35:00,39.0,29.7,29.63,SSE,151,0.0,2.0,69,0.00,,,0.00,VWS V14.01,2013-02-14 01:35:00,
2013-02-13 20:40:00,39.0,30.1,29.62,SSE,151,0.0,2.0,70,0.00,,,0.00,VWS V14.01,2013-02-14 01:40:00,
2013-02-13 20:45:00,39.0,30.1,29.63,SSE,151,0.0,2.0,70,0.00,,,0.00,VWS V14.01,2013-02-14 01:45:00,
2013-02-13 20:50:00,38.9,30.3,29.63,SSE,151,0.0,2.0,71,0.00,,,0.00,VWS V14.01,2013-02-14 01:50:00,
2013-02-13 20:55:00,38.9,30.3,29.62,SSE,151,0.0,2.0,71,0.00,,,0.00,VWS V14.01,2013-02-14 01:55:00,
2013-02-13 21:00:00,38.5,30.3,29.63,SSE,151,0.0,0.0,72,0.00,,,0.00,VWS V14.01,2013-02-14 02:00:00,
2013-02-13 21:05:00,38.6,30.4,29.63,SSE,151,0.0,0.0,72,0.00,,,0.00,VWS V14.01,2013-02-14 02:05:00,
2013-02-13 21:10:00,38.7,30.5,29.62,SSE,151,0.0,0.0,72,0.00,,,0.00,VWS V14.01,2013-02-14 02:10:00,
2013-02-13 21:15:00,38.5,30.3,29.62,SSE,151,0.0,0.0,72,0.00,,,0.00,VWS V14.01,2013-02-14 02:15:00,
2013-02-13 21:20:00,38.5,30.6,29.62,SSE,151,0.0,0.0,73,0.00,,,0.00,VWS V14.01,2013-02-14 02:20:00,
2013-02-13 21:25:00,38.3,30.4,29.63,SSE,151,0.0,0.0,73,0.00,,,0.00,VWS V14.01,2013-02-14 02:25:00,
2013-02-13 21:30:00,38.1,30.6,29.63,East,91,1.0,1.0,74,0.00,,,0.00,VWS V14.01,2013-02-14 02:30:00,
2013-02-13 21:35:00,38.1,30.2,29.62,ENE,74,0.0,3.0,73,0.00,,,0.00,VWS V14.01,2013-02-14 02:35:00,
2013-02-13 21:40:00,38.2,30.3,29.62,ENE,74,0.0,3.0,73,0.00,,,0.00,VWS V14.01,2013-02-14 02:40:00,
2013-02-13 21:45:00,38.3,30.4,29.62,ENE,74,0.0,3.0,73,0.00,,,0.00,VWS V14.01,2013-02-14 02:45:00,
2013-02-13 21:50:00,38.2,30.0,29.62,NE,39,0.0,4.0,72,0.00,,,0.00,VWS V14.01,2013-02-14 02:50:00,
2013-02-13 21:55:00,38.2,30.0,29.62,NE,39,1.0,4.0,72,0.00,,,0.00,VWS V14.01,2013-02-14 02:55:00,
2013-02-13 22:00:00,38.1,29.5,29.62,NE,34,0.0,1.0,71,0.00,,,0.00,VWS V14.01,2013-02-14 03:00:00,
2013-02-13 22:05:00,38.1,29.9,29.62,NE,35,0.0,3.0,72,0.00,,,0.00,VWS V14.01,2013-02-14 03:05:00,
2013-02-13 22:10:00,38.1,29.9,29.62,NE,34,0.0,5.0,72,0.00,,,0.00,VWS V14.01,2013-02-14 03:10:00,
2013-02-13 22:15:00,38.0,29.8,29.62,NE,34,0.0,5.0,72,0.00,,,0.00,VWS V14.01,2013-02-14 03:15:00,
2013-02-13 22:20:00,38.0,29.8,29.62,NNE,31,4.0,6.0,72,0.00,,,0.00,VWS V14.01,2013-02-14 03:20:00,
2013-02-13 22:25:00,37.7,30.2,29.62,NNE,30,2.0,6.0,74,0.00,,,0.00,VWS V14.01,2013-02-14 03:25:00,
2013-02-13 22:30:00,37.5,30.0,29.62,NE,36,0.0,2.0,74,0.00,,,0.00,VWS V14.01,2013-02-14 03:30:00,
2013-02-13 22:35:00,37.4,30.2,29.62,NNE,33,0.0,5.0,75,0.00,,,0.00,VWS V14.01,2013-02-14 03:35:00,
2013-02-13 22:40:00,37.3,30.1,29.62,NE,35,0.0,5.0,75,0.00,,,0.00,VWS V14.01,2013-02-14 03:40:00,
2013-02-13 22:45:00,37.3,30.1,29.62,NE,35,0.0,5.0,75,0.00,,,0.00,VWS V14.01,2013-02-14 03:45:00,
2013-02-13 22:50:00,37.3,29.8,29.62,NE,35,0.0,5.0,74,0.00,,,0.00,VWS V14.01,2013-02-14 03:50:00,
2013-02-13 22:55:00,37.3,29.8,29.62,ENE,69,0.0,6.0,74,0.00,,,0.00,VWS V14.01,2013-02-14 03:55:00,
2013-02-13 23:00:00,37.2,29.7,29.62,ENE,71,0.0,1.0,74,0.00,,OVC055,0.00,VWS V14.01,2013-02-14 04:00:00,
2013-02-13 23:05:00,37.1,29.3,29.62,NE,50,2.0,4.0,73,0.00,,OVC055,0.00,VWS V14.01,2013-02-14 04:05:00,
2013-02-13 23:10:00,37.0,29.5,29.62,NNE,33,4.0,6.0,74,0.00,,OVC055,0.00,VWS V14.01,2013-02-14 04:10:00,
2013-02-13 23:15:00,37.0,29.5,29.62,NNE,18,1.0,9.0,74,0.00,,OVC055,0.00,VWS V14.01,2013-02-14 04:15:00,
2013-02-13 23:20:00,36.9,29.4,29.62,NNE,30,5.0,9.0,74,0.00,,OVC055,0.00,VWS V14.01,2013-02-14 04:20:00,
2013-02-13 23:25:00,37.0,29.8,29.62,NNE,17,5.0,9.0,75,0.00,,OVC055,0.00,VWS V14.01,2013-02-14 04:25:00,
2013-02-13 23:30:00,36.7,30.2,29.62,NNE,19,3.0,10.0,77,0.00,,OVC055,0.00,VWS V14.01,2013-02-14 04:30:00,
2013-02-13 23:35:00,36.3,30.4,29.62,NE,37,2.0,10.0,79,0.00,,OVC055,0.00,VWS V14.01,2013-02-14 04:35:00,
2013-02-13 23:40:00,36.2,30.9,29.62,North,5,0.0,10.0,81,0.00,,OVC055,0.00,VWS V14.01,2013-02-14 04:40:00,
2013-02-13 23:45:00,36.0,31.4,29.63,NNE,18,3.0,10.0,82,0.00,,OVC055,0.00,VWS V14.01,2013-02-14 04:45:00,
2013-02-13 23:50:00,35.8,31.5,29.62,NE,37,4.0,10.0,84,0.00,,OVC055,0.00,VWS V14.01,2013-02-14 04:50:00,
2013-02-13 23:55:00,35.7,31.7,29.62,North,10,0.0,10.0,85,0.00,,OVC055,0.00,VWS V14.01,2013-02-14 04:55:00,